Regional Weather Roundup
Issued by NWS

Home | Current Version | Previous Version | Text Only | Print | Product List | Glossary Off
Versions: 1 2 3 4 5 6 7 8 9 10 11 12 13 14 15 16 17 18 19 20 21 22 23 24 25 26 27 28 29 30 31 32 33 34 35 36 37 38 39 40 41 42 43 44 45 46 47 48 49 50

000
ASUS45 KBOU 011207
RWRCO

WEATHER ROUNDUP FOR COLORADO
NATIONAL WEATHER SERVICE DENVER/BOULDER CO
600 AM MDT WED APR 01 2015

NOTE: "FAIR" INDICATES FEW OR NO CLOUDS BELOW 12000 FEET WITH NO
SIGNIFICANT WEATHER AND/OR OBSTRUCTIONS TO VISIBILITY.

COZ001>005-013-030-031-011300-
...NORTHWEST COLORADO...

CITY           SKY/WX    TMP DP  RH WIND       PRES   REMARKS
CRAIG          CLOUDY    45  26  47 S5        29.86R
HAYDEN         MOCLDY    48  19  32 W6        29.87R
MEEKER         CLOUDY    49  23  36 N9        29.87R
MOUNT WERNER   NOT AVBL
STEAMBOAT SPGS CLOUDY    42  26  54 CALM      29.87S
WALDEN         MOCLDY    43  19  39 W15G25    29.88S
$$

COZ006>008-011-011300-
...WEST CENTRAL VALLEYS...

CITY           SKY/WX    TMP DP  RH WIND       PRES   REMARKS
GRAND JUNCTION PTCLDY    50  21  32 SE8       29.82R
MONTROSE       MOCLDY    51  22  31 S14       29.92S
EAGLE          PTCLDY    36  23  60 CALM      29.92R
RIFLE          MOCLDY    40  24  53 E7        29.85S
DELTA          PTCLDY    46  26  45 NE8       29.87F
NUCLA          CLOUDY    52  21  30 CALM      29.95S
$$

COZ017>023-064>068-011300-
...SOUTHWEST COLORADO...

CITY           SKY/WX    TMP DP  RH WIND       PRES   REMARKS
DURANGO        PTCLDY    40  27  59 N5        29.98S
CORTEZ         MOCLDY    53  26  35 S12       29.96S
PAGOSA SPRINGS MOCLDY    36  24  63 NE3       30.02S
TELLURIDE      NOT AVBL
WOLF CREEK PAS CLOUDY    28  18  64 SW28G33   30.16S WCI  13
$$

COZ009-010-012-014-032>034-037-058>063-011300-
...CENTRAL COLORADO...

CITY           SKY/WX    TMP DP  RH WIND       PRES   REMARKS
ASPEN          CLOUDY    42  25  50 VRB3      29.93S
BUENA VISTA    PTCLDY    33  22  65 N6        29.93S WCI  28
COPPER MTN     MOCLDY    36  18  48 W20G39    30.07S HAZE
BERTHOUD PASS  FAIR      28  21  74 W39G47    30.03F WCI  11
COTTONWOOD PAS PTCLDY    45  16  31 NW3G22    29.99F
GUNNISON       PTCLDY    27  21  80 CALM      30.03R
KREMMLING      MOCLDY    30  23  74 CALM      29.91S
LEADVILLE      NOT AVBL
SALIDA         PTCLDY    49  20  31 SW10      30.00R
SUNLIGHT       PTCLDY    36  21  55 CALM      30.06S
WILKERSON PASS PTCLDY    32  16  51 SW16G24   30.03S WCI  21
$$

COZ069>075-011300-
...SAN LUIS VALLEY/SANGRE DE CRISTO MOUNTAINS...

CITY           SKY/WX    TMP DP  RH WIND       PRES   REMARKS
ALAMOSA        MOCLDY    33  22  63 SE5       29.97S WCI  29
LA VETA PASS   MOCLDY    36  19  51 S15G28    30.03S
SAGUACHE       PTCLDY    30  18  59 CALM      29.98F
$$

COZ035-036-038>040-011300-
...NORTHERN COLORADO FRONT RANGE...

CITY           SKY/WX    TMP DP  RH WIND       PRES   REMARKS
DENVER INTL AP MOCLDY    57  23  26 S15       29.74S
DMNS CITY PARK   N/A     56  22  26 S7G14     29.74R
AURORA         MOCLDY    51  24  35 S13       29.76S
FRONT RANGE AP MOCLDY    55  27  33 S16       29.75S
ERIE MUNI ARPT CLOUDY    53  21  28 CALM      29.72R
BOULDER MUN AP CLOUDY    55  21  26 W3        29.72R
CENTENNIAL     CLOUDY    53  22  29 S12       29.76F
BROOMFIELD     CLOUDY    55  19  24 W8        29.76R
FORT COLLINS   CLOUDY    46  27  46 CALM      29.71F
LONGMONT       CLOUDY    60  22  22 S3        29.72S
$$

COZ041-046-047-076>085-087-088-011300-
...PIKES PEAK/PALMER DIVIDE AND SOUTHERN FOOTHILLS...

CITY           SKY/WX    TMP DP  RH WIND       PRES   REMARKS
COLO. SPRINGS  MOCLDY    50  22  33 NE7       29.82F
A. F. ACADEMY  MOCLDY    51  17  26 NW3       29.83R
ELLICOTT       NOT AVBL
FALCON         MOCLDY    49  18  28 CALM      29.86S
FORT CARSON    PTCLDY    49  22  35 W5        29.80S
LIMON          PTCLDY    29  24  82 N5        29.78F WCI  24
MONUMENT HILL  MOCLDY    46  19  34 S6        29.85R
TRINIDAD       CLEAR     49  21  33 SW15      29.84F
$$

COZ042>045-048>051-090-091-011300-
...NORTHEAST COLORADO...

CITY           SKY/WX    TMP DP  RH WIND       PRES   REMARKS
GREELEY ARPT   MOCLDY    39  19  45 NW7       29.69S
AKRON          PTCLDY    52  23  32 SW12      29.70S
BURLINGTON     CLEAR     46  38  73 W9        29.72F
WRAY           CLEAR     51  40  65 SW14      29.66F
STERLING       PTCLDY    37  28  70 W9        29.67S
HOLYOKE        NOT AVBL
FORT MORGAN    PTCLDY   N/A N/A N/A MISG      29.70S
$$

COZ086-089-092>099-011300-
...SOUTHEAST COLORADO...

CITY           SKY/WX    TMP DP  RH WIND       PRES   REMARKS
PUEBLO         PTCLDY    45  26  47 W7        29.77S
LA JUNTA       CLEAR     49  24  37 SW8       29.75F
LAMAR          CLEAR     39  32  76 CALM      29.72S
SPRINGFIELD      N/A     43  28  55 SW10      29.76F
$$


USA.gov is the U.S. government's official web portal to all federal, state and local government web resources and services.